Loisir ou Compétition : Rejoignez un Club de la Fédération

Résultats

Chpt de FRANCE de rollerski 2011 Besse/Super-Besse

SUPER BESSE

IND Dames

Jury de Compétition

Délégué Technique :
BOULARAN GAETAN (AU)
D.T. Adjoint :
FROSSARD CHRISTIAN (SA)
Dir. Epreuve :
ECHAVIDRE FREDERIC (AU)

Caractéristiques de la Piste

Piste :
Site de Replis
Distance :
3 km
Point Haut :
 
Point Bas :
 
Montée Tot. :
 
Montée Max. :
 
Homologation :
-1

Pénalité Appliquée :
0.4900

Catégorie :
CAD/VET4
Clt Dos Clt/Cat Code An Nom Prénom Com Club Temps Ecart Points
Classés
1 40 1/SEN FFS2259863 1989 LOCATELLI MANON DA SA MEAUDRAIS 07:20.2 00:00.0 0.49
2 45 2/SEN FFS940675 1982 VINA EMILIE MB 27BCA/PRAZLY 07:31.1 00:10.9 20.30
3 46 3/SEN FFS2189504 1988 BARTHELEMY LAURE MB EMHM/ROCHOIS 07:37.1 00:16.9 31.20
4 41 4/SEN FFS2261239 1986 FAIVRE PICON ANOUK MJ EMHM/PONTARL 07:38.3 00:18.1 33.38
5 43 5/SEN FFS2122387 1984 HUGUE CORALINE AP EMHM/ORRES 07:40.8 00:20.6 37.93
6 44 6/SEN FFS2194259 1985 JEAN AURORE MJ DOUA/ROUSSES 07:46.1 00:25.9 47.56
7 39 7/SEN FFS2166495 1983 WEIBEL CAROLINE MV DOUA/RANSPAC 07:49.0 00:28.8 52.83
8 34 8/SEN FFS2326947 1990 TASSION LAURE SA SC ARECHES 07:52.8 00:32.6 59.74
9 38 9/SEN FFS2292494 1991 AYMONIER CELIA MJ SC LESFOURGS 07:56.3 00:36.1 66.10
10 35 10/SEN FFS2160673 1984 PERRET GAETANE MJ HT JURA SKI 07:57.1 00:36.9 67.55
11 37 11/SEN FFS2266678 1991 COLIN MARION MV H.M.S.N. 08:02.5 00:42.3 77.36
11 42 11/SEN FFS1341311 1990 BUILLET MARION SA CS SAISIES 08:02.5 00:42.3 77.36
13 31 13/SEN FFS2265148 1989 SIMILLE MANON SA SC BOZEL 08:03.6 00:43.4 79.36
14 30 1/JUN FFS2614070 1992 ANSELMO CINDELL MB CS CHAMONIX 08:07.2 00:47.0 85.91
15 32 2/JUN FFS2618811 1993 DEVAUX JULIA DA CS VILLARD 08:07.6 00:47.4 86.63
16 25 3/JUN FFS2626761 1993 GODIN MARIE CAROLINE MJ BOIS D'AMONT 08:09.7 00:49.5 90.45
17 23 4/JUN FFS2620471 1992 LACROIX ROXANE MJ BOIS D'AMONT 08:09.8 00:49.6 90.63
18 17 14/SEN FFS2600933 1990 DEWAELE MARINE MB CS CHAMONIX 08:17.2 00:57.0 104.08
19 11 5/JUN FFS2625745 1993 PELLEGRINI CHLOE MJ CSR PONTARLI 08:22.2 01:02.0 113.17
20 16 1/JEUN FFS2621142 1994 RAVEL ELSA AP AS EDELWEISS 08:22.4 01:02.2 113.53
21 21 2/JEUN FFS2604396 1994 MARSEILLE LISE AP GAP-BAYARD 08:26.2 01:06.0 120.44
22 27 6/JUN FFS2356248 1993 GUIPPONI ALEXIA SA SC BOZEL 08:31.8 01:11.6 130.61
23 26 7/JUN FFS2613211 1992 HUDRY CLERGEON GAELLE MB SC GD BORNAN 08:37.4 01:17.2 140.79
24 14 3/JEUN FFS2619875 1994 TRUJON ANDREA MJ PREMANON SC 08:37.5 01:17.3 140.97
25 33 15/SEN FFS2265286 1991 ANDRE MATHILDE SA CS LA FECLAZ 08:38.1 01:17.9 142.06
26 29 4/JEUN FFS2628103 1994 PETITJEAN MATHILDE MB SCNP ROCHOIS 08:42.0 01:21.8 149.15
27 22 5/JEUN FFS2625590 1994 VULLIET CONSTANCE MB SC GD BORNAN 08:42.1 01:21.9 149.33
28 8 6/JEUN FFS2633077 1994 BELIARD CLEMENCE MJ CSR PONTARLI 08:45.3 01:25.1 155.15
29 19 8/JUN FFS2615048 1993 MADARY LISE DA CS VILLARD 08:48.7 01:28.5 161.33
30 24 7/JEUN FFS2625587 1994 PERRILLAT ALISON MB SC GD BORNAN 08:50.6 01:30.4 164.78
31 3 8/JEUN FFS2638033 1995 BLONDEAU MAELISS MJ SC MONT NOIR 08:55.1 01:34.9 172.96
32 5 9/JEUN FFS2626799 1995 YSEBAERT ANAIS AP AS EDELWEISS 08:59.3 01:39.1 180.59
33 7 10/JEUN FFS2621382 1994 VERGUET NOEMIE MJ HT JURA SKI 09:01.3 01:41.1 184.22
34 9 11/JEUN FFS2626362 1995 SERCA CECILE AP ES VALLOUISE 09:02.5 01:42.3 186.41
35 18 9/JUN FFS2613215 1992 PESSEY IRIS MB SC GD BORNAN 09:04.4 01:44.2 189.86
36 6 12/JEUN FFS2633735 1995 DAMIANI LEA MB VILLARD/BOEG 09:12.7 01:52.5 204.94
37 12 13/JEUN FFS2626357 1995 GROS EMILIE AP ES VALLOUISE 09:16.4 01:56.2 211.67
38 20 10/JUN FFS2622862 1993 KROMER MARIE MB PRAZ LYS-SOM 09:17.0 01:56.8 212.76
39 13 14/JEUN FFS2617672 1994 CHOPARD LALLIER CELINE MJ VAL MORTEAU 09:25.1 02:04.9 227.48
40 10 15/JEUN FFS2601098 1995 MIOCEC PAULINE SA SC MENUIRES 09:32.4 02:12.2 240.74
41 2 16/JEUN FFS2616781 1995 CADET CAMILLE DA CS VILLARD 09:37.7 02:17.5 250.38
42 1 17/JEUN FFS2353191 1995 CHATAIGNIER MANON LY SC BRENOD 09:55.2 02:35.0 282.18
43 15 18/JEUN FFS2603113 1995 PERRILLAT MAILYS MB SC GD BORNAN 09:57.6 02:37.4 286.54
44 4 19/JEUN FFS2614126 1995 CERDAN MAELLE LY US CORMARANC 10:13.3 02:53.1 315.07
Abandons
36 FFS2353782 1990 MOUILLESEAUX LUCILE MB PRAZ LYS-SOM
Non partants
28 FFS2289281 1992 MONTIGNY SIGRID AP ES VALLOUISE